CW0210 Weather Reports


time (UTC)temp
C
wind
direction
speed
KPH
gust
KPH
rain 1hr
cm
rain 24hr
cm
rain mn
cm
humidity
%
barometer
mb
20260507111542 9 252 0.0 0.0 0.00 0.00 0.28 92 1005.4
20260507110039 9 252 0.0 0.0 0.00 0.00 0.28 92 1005.1
20260507104541 9 253 0.0 0.0 0.00 0.00 0.28 92 1005.6
20260507103037 9 253 0.0 0.0 0.00 0.00 0.28 91 1005.6
20260507101534 9 253 0.0 0.0 0.00 0.00 0.28 91 1005.1
20260507100032 9 253 0.0 0.0 0.00 0.00 0.28 90 1004.9
20260507094533 10 232 0.0 0.0 0.00 0.00 0.25 90 1004.8
20260507093033 10 290 1.6 0.0 0.00 0.00 0.20 90 1004.7
20260507091525 10 269 0.0 0.0 0.00 0.00 0.15 89 1004.7
20260507090023 10 259 0.0 0.0 0.00 0.00 0.08 89 1004.9
20260507084525 11 258 0.0 0.0 0.00 0.00 0.08 88 1005.0
20260507083018 11 237 0.0 0.0 0.00 0.00 0.08 88 1004.6
20260507081525 11 241 0.0 0.0 0.00 0.00 0.05 88 1004.2
20260507080014 11 269 0.0 0.0 0.00 0.00 0.03 87 1004.5
20260507074513 12 290 1.6 0.0 0.00 0.00 0.03 85 1004.4
20260507073010 12 255 0.0 0.0 0.00 0.00 0.00 84 1004.1
20260507071511 12 257 0.0 0.0 0.00 0.00 0.00 83 1003.8
20260507070012 12 327 1.6 0.0 0.00 0.00 0.00 83 1003.7
20260507064505 12 290 1.6 0.0 0.00 0.00 0.00 87 1003.8
20260507063003 13 306 3.2 0.0 0.00 0.00 0.00 88 1003.8
20260507061502 13 302 1.6 0.0 0.00 0.00 0.00 88 1003.4
20260507060103 13 282 3.2 0.0 0.00 0.00 0.00 89 1003.9
20260507054559 13 295 3.2 0.0 0.00 0.00 0.00 89 1004.0
20260507053055 13 288 1.6 0.0 0.00 0.00 0.00 92 1004.1
20260507051553 14 251 1.6 0.0 0.00 0.00 0.00 91 1003.7
20260507050049 15 254 3.2 0.0 0.00 0.00 0.00 92 1003.8
20260507044604 15 284 1.6 0.0 0.00 0.00 0.00 93 1003.7
20260507043100 15 277 0.0 0.0 0.00 0.00 0.00 93 1003.6
20260507041544 15 245 0.0 0.0 0.00 0.00 0.00 93 1003.7
20260507040042 15 218 0.0 0.0 0.00 0.00 0.00 93 1004.0
20260507034542 15 236 0.0 0.0 0.00 0.00 0.10 93 1003.9
20260507033040 15 204 1.6 0.0 0.00 0.00 0.10 93 1003.8
20260507031545 15 232 1.6 0.0 0.00 0.00 0.10 93 1003.4
20260507030041 15 222 1.6 0.0 0.00 0.00 0.10 93 1003.1
20260507024539 15 261 1.6 0.0 0.00 0.00 0.10 93 1003.4
20260507023037 15 272 1.6 0.0 0.00 0.00 0.10 93 1003.4
20260507021539 15 223 0.0 0.0 0.00 0.00 0.10 93 1003.4
20260507020048 15 238 0.0 0.0 0.00 0.00 0.10 93 1003.3
20260507014536 15 207 1.6 0.0 0.00 0.00 0.10 93 1003.4
20260507013034 14 218 0.0 0.0 0.00 0.00 0.10 93 1003.6
20260507011543 14 216 1.6 0.0 0.00 0.00 0.10 93 1003.7
20260507010036 14 224 1.6 0.0 0.00 0.00 0.10 92 1003.8
20260507004533 14 212 0.0 0.0 0.00 0.00 0.10 92 1003.8
20260507003031 14 231 0.0 0.0 0.00 0.00 0.10 92 1003.8
20260507001602 14 239 1.6 0.0 0.00 0.00 0.10 92 1003.7
20260507000035 15 196 1.6 0.0 0.00 0.00 0.10 92 1003.6
20260506234528 15 206 0.0 0.0 0.00 0.00 0.08 91 1003.6
20260506233026 15 238 0.0 0.0 0.00 0.00 0.08 91 1003.5
20260506231525 15 270 0.0 0.0 0.00 0.00 0.05 90 1003.5
20260506230033 15 269 0.0 0.0 0.00 0.00 0.05 90 1003.4
20260506224522 16 203 1.6 0.0 0.00 0.00 0.05 92 1003.7
20260506223028 16 196 0.0 0.0 0.00 0.00 0.05 89 1003.8
20260506221519 16 227 0.0 0.0 0.00 0.00 0.05 89 1003.9
20260506220018 16 254 0.0 0.0 0.00 0.00 0.03 88 1004.1
20260506214516 17 180 0.0 0.0 0.00 0.00 0.03 87 1004.3
20260506213017 17 199 1.6 0.0 0.00 0.00 0.03 87 1004.3
20260506211520 17 229 1.6 0.0 0.00 0.00 0.03 86 1004.3
20260506210029 17 234 1.6 0.0 0.00 0.00 0.03 85 1004.4
20260506204514 17 289 1.6 0.0 0.00 0.00 0.03 84 1004.7
20260506203013 17 209 1.6 0.0 0.00 0.00 0.03 82 1004.7
20260506201519 17 213 1.6 0.0 0.00 0.00 0.03 82 1004.4
20260506200012 18 254 0.0 0.0 0.00 0.00 0.03 81 1004.3
20260506194510 18 216 0.0 0.0 0.00 0.00 0.03 79 1004.7
20260506193018 19 177 1.6 0.0 0.00 0.00 0.00 75 1004.8
20260506191511 20 230 1.6 0.0 0.00 0.00 0.00 72 1004.5
20260506190011 21 205 1.6 0.0 0.00 0.00 0.00 67 1004.5
20260506184507 21 30 0.0 0.0 0.00 0.00 0.00 66 1004.6
20260506183007 21 49 3.2 0.0 0.00 0.00 0.00 64 1004.6
20260506181505 21 184 1.6 0.0 0.00 0.00 0.00 63 1004.8
20260506180005 21 288 0.0 0.0 0.00 0.00 0.00 65 1005.1
20260506174503 21 226 1.6 0.0 0.00 0.00 0.00 65 1005.2
20260506173003 21 136 1.6 0.0 0.00 0.00 0.00 65 1005.4
20260506171601 21 63 1.6 0.0 0.00 0.00 0.00 65 1005.4
20260506170109 21 107 0.0 0.0 0.00 0.00 0.00 65 1005.5
20260506164625 21 67 1.6 0.0 0.00 0.00 0.00 65 1005.6
20260506163111 22 193 0.0 0.0 0.00 0.00 0.00 64 1005.7
20260506161555 22 241 0.0 0.0 0.00 0.00 0.00 64 1006.1
20260506154555 22 269 1.6 0.0 0.00 0.00 0.00 63 1006.6
20260506153049 22 126 1.6 0.0 0.00 0.00 0.00 63 1006.7
20260506151550 22 213 1.6 0.0 0.00 0.00 0.00 64 1006.8
20260506150059 21 220 1.6 0.0 0.00 0.00 0.00 65 1007.0
20260506144544 21 158 1.6 0.0 0.00 0.00 0.00 67 1006.9
20260506143041 21 237 1.6 0.0 0.00 0.00 0.00 68 1006.9
20260506141542 20 300 1.6 0.0 0.00 0.00 0.00 70 1006.8
20260506140035 19 190 0.0 0.0 0.00 0.00 0.00 73 1007.0
20260506134532 19 228 1.6 0.0 0.00 0.00 0.00 74 1007.2
20260506133029 18 223 1.6 0.0 0.00 0.00 0.00 76 1007.6
20260506131529 18 302 0.0 0.0 0.00 0.00 0.00 77 1007.5
20260506130024 17 234 0.0 0.0 0.00 0.00 0.00 79 1007.5
20260506124523 17 312 0.0 0.0 0.00 0.00 0.00 81 1007.8
20260506123020 17 255 1.6 0.0 0.00 0.00 0.00 81 1007.7
20260506121519 16 221 0.0 0.0 0.00 0.00 0.00 82 1007.5
20260506120038 16 355 0.0 0.0 0.00 0.00 0.00 82 1007.9
20260506114519 16 223 0.0 0.0 0.00 0.00 0.00 82 1008.0
20260506113017 16 284 0.0 0.0 0.00 0.00 0.00 83 1008.0